Location: Berlin
(42.3812°N, 71.6370°W)
Time: 21:02:35
(UTC+00:00)

RESURS DK-1 - Pass Details

Date: 15 November 2025
Orbit: 524 x 535 km, 69.9° (Epoch: 10 December)

Event Time Altitude Azimuth Distance (km) Brightness Sun altitude
Rises 00:00:26 0° 324° (NW) 2,694 6.3 -28.7°
Reaches altitude 10° 00:02:48 10° 314° (NW) 1,798 5.5 -29.1°
Enters shadow 00:05:53 30° 266° (W) 983 4.1 -29.7°
